User: anonymous   Login
Location: Antioch Church
(34.9543°N, 88.5145°W)
Time: 01:18:09
(UTC+00:00)
Language:

Meteor 1-19 Rocket - Orbit

View from above orbital plane
View from above orbital plane
View from above satellite
View from above satellite

Ground track
Ground track

The orbit data is extracted from the following two-line orbital elements,

1  7493U 74083B   20047.39856958 -.00000010 +00000-0 -12427-4 0  9994
2  7493 081.1654 287.8065 0071538 247.9308 111.4254 14.07597207325867
Epoch (UTC): 16 February 2020 09:33:56
Eccentricity: 0.0071538
inclination: 81.1654°
perigee height: 816 km
apogee height: 919 km
right ascension of ascending node: 287.8065°
argument of perigee: 247.9308°
revolutions per day: 14.07597207
mean anomaly at epoch: 111.4254°
orbit number at epoch: 32586

The dashed part of the orbit path shows where the satellite is in the earth's shadow,  

DLR